RH
61 64 85 84 82 87 78 75 76 73 78 78 68 63 65 70 70 68 66 65 61 57 60 59 54 56 57 55 55 46 44 53 64 60 52 50 53 62 58 71 79 83 86
61 63 78 87 83 82 78 83 84 78 79 82 75 68 62 62 70 70 67 64 61 76 53 48 52 68 72 61 65 60 49 48 50 52 55 55 56 61 61 69 76 75 80
57 54 63 76 86 83 79 74 80 77 83 85 83 76 72 65 61 60 52 56 57 54 55 56 55 72 63 58 53 52 55 61 57 52 57 55 61 60 63 78 83 78 75
60 46 52 53 63 71 75 77 74 68 69 76 80 84 83 78 73 68 62 61 64 64 66 71 64 67 66 66 61 53 52 51 69 65 56 56 75 72 66 60 86 79 77
64 49 41 39 49 52 47 47 52 58 65 73 81 85 87 87 86 87 85 80 73 67 65 70 70 69 66 59 57 51 50 46 62 73 68 63 71 79 76 67 61 69 80
57 50 43 39 35 32 32 30 30 30 32 38 52 68 77 87 91 88 82 71 73 64 74 82 82 72 63 60 64 58 59 71 77 73 74 75 74 82 84 77 59 65 78
56 52 48 44 42 42 42 42 40 45 49 50 54 49 52 66 77 79 72 64 76 71 72 72 78 70 72 69 67 66 78 86 71 64 77 73 83 82 74 76 66 61 74
48 51 54 52 50 44 44 48 51 52 54 57 58 56 57 59 64 70 78 80 82 88 91 75 69 68 66 69 78 70 72 71 68 74 77 71 79 81 79 85 74 60 67
60 60 63 64 61 56 48 45 52 51 54 56 53 56 62 63 62 68 75 79 84 81 78 81 84 80 66 76 76 87 88 88 81 75 74 76 76 72 78 82 82 67 64
67 66 70 71 70 63 54 58 55 54 58 59 60 62 66 70 71 73 78 83 87 85 83 87 90 95 98 95 90 86 87 89 88 79 67 71 76 81 77 76 81 81 70
79 73 73 74 74 68 62 65 64 65 62 65 62 71 75 79 76 78 75 79 80 82 84 88 92 94 94 90 87 85 86 84 79 74 73 73 80 75 76 74 85 82 80
89 83 78 79 78 76 69 69 69 71 71 72 69 72 78 81 76 73 64 60 66 70 78 80 79 80 84 85 82 77 70 70 74 89 86 78 75 79 94 88 83 86 83
74 80 68 68 73 76 74 70 74 74 75 76 78 76 76 77 75 74 70 62 57 56 54 59 60 67 71 70 65 62 64 67 68 72 74 76 77 79 85 96 85 80 83
68 54 49 50 64 69 65 67 75 78 78 77 75 73 75 69 64 58 66 64 65 59 50 55 61 65 72 77 75 78 84 83 81 74 69 68 72 69 66 73 96 96 83
47 45 40 38 51 40 52 64 79 78 78 82 79 72 68 63 62 63 66 69 65 70 76 77 68 64 62 62 59 61 59 72 86 83 81 80 73 71 78 73 81 89 98
39 34 33 38 41 42 54 60 66 72 73 82 74 69 60 60 64 69 72 78 82 78 75 58 44 37 33 32 33 34 39 39 54 41 36 41 49 57 68 83 80 74 88
34 32 35 38 37 40 46 50 54 54 51 50 50 50 47 47 63 68 72 77 80 73 64 54 41 35 35 35 34 34 35 37 37 36 34 34 34 32 33 41 59 88 78
31 32 39 36 34 38 40 42 48 51 44 41 36 37 40 43 50 57 59 62 64 62 53 49 38 38 37 37 37 36 37 36 36 35 34 36 40 41 46 38 55 68 70
28 35 34 28 29 33 32 34 38 39 39 38 36 36 38 43 45 45 42 49 52 50 40 38 38 38 35 36 37 35 34 36 37 36 37 34 41 38 43 41 46 58 56
29 30 25 24 25 24 25 25 27 30 32 31 30 32 36 45 50 46 40 46 53 46 35 36 38 38 37 38 40 37 36 36 37 36 37 44 36 37 40 44 50 43 43
27 25 23 22 22 23 24 25 26 25 26 28 28 28 30 30 42 51 41 35 43 43 36 36 38 40 39 40 44 43 43 37 39 34 38 35 47 42 49 46 43 50 47
23 23 23 22 23 23 23 23 24 25 25 26 26 27 28 28 28 45 44 37 33 37 39 37 40 41 41 45 47 62 68 52 37 38 40 49 44 54 48 45 52 50 45
23 22 23 22 23 24 24 25 26 27 28 27 27 28 27 27 30 40 40 42 36 34 39 38 40 42 44 51 54 53 76 78 76 45 35 38 45 37 42 46 40 48 48
22 23 24 25 27 28 30 30 31 32 35 31 31 32 32 30 29 30 32 44 40 36 41 42 45 51 50 55 41 58 35 47 70 66 40 36 34 41 37 39 44 34 29
27 27 30 31 32 34 35 35 36 40 38 38 40 41 41 39 35 32 33 48 48 44 48 53 53 38 37 38 42 50 55 54 50 79 56 42 45 46 47 50 49 45 46
37 38 34 34 36 37 39 37 37 37 35 43 41 40 38 43 44 41 45 60 54 58 54 52 60 70 80 73 67 61 53 54 56 61 78 56 60 58 51 49 51 47 42
Wind_Speed
8 8 7 8 9 10 10 9 11 12 9 10 8 9 13 18 19 18 17 16 13 10 8 8 8 9 9 9 10 11 5 3 1 3 2 2 2 3 4 5 7 8 10
12 12 9 9 10 11 12 10 10 12 10 8 7 8 8 12 15 15 13 10 10 7 5 3 7 7 8 11 9 10 11 8 2 3 4 4 5 6 7 9 7 7 10
14 14 11 12 8 10 12 11 10 10 9 7 6 5 7 8 10 12 13 14 7 4 9 9 4 11 11 9 9 10 9 8 7 6 6 7 8 9 8 11 9 11 11
14 13 11 12 9 8 12 11 10 10 7 6 4 6 6 7 8 8 10 10 10 10 8 4 2 7 7 8 12 11 12 9 7 9 8 10 9 9 11 14 15 14 11
11 11 10 12 11 10 10 9 7 7 6 6 5 5 5 5 5 6 8 10 12 10 5 2 2 7 10 11 11 13 10 8 11 12 11 11 11 9 11 15 16 17 16
13 12 11 10 10 9 8 7 7 6 5 5 5 5 5 5 5 5 7 7 9 6 7 9 7 6 8 8 11 11 9 9 13 14 13 12 11 12 17 17 17 18 19
15 13 12 10 8 7 6 4 5 4 4 3 3 4 4 4 4 4 3 2 2 4 7 8 9 9 10 11 8 14 11 11 8 14 15 15 14 11 12 17 16 19 20
15 14 12 10 8 6 4 3 2 3 2 2 1 1 2 3 3 2 2 3 4 6 7 7 8 10 14 16 15 15 13 15 15 12 16 15 15 13 10 18 17 18 21
15 13 13 11 9 7 4 4 4 4 4 3 3 3 3 3 2 1 1 1 1 3 6 7 8 7 7 8 9 9 6 8 10 14 13 13 16 15 17 16 19 20 20
17 15 14 11 8 6 5 3 3 4 4 4 4 4 4 2 1 1 0 1 2 2 4 4 4 4 3 5 7 9 8 7 8 10 11 12 15 14 16 19 21 21 21
16 15 13 11 7 6 6 5 4 3 2 2 3 4 4 2 0 1 1 2 3 4 4 5 5 4 5 5 8 10 11 11 11 11 12 12 12 14 15 15 19 20 21
20 18 14 11 9 8 8 7 6 7 5 4 3 5 5 4 4 3 4 5 6 5 5 5 6 7 8 8 10 11 13 15 15 14 13 14 14 13 15 12 16 19 21
19 17 13 11 11 12 11 12 11 9 8 7 6 7 8 8 8 9 9 8 7 6 7 7 6 6 8 10 11 12 13 15 17 18 17 15 14 13 15 15 17 19 21
22 18 15 12 12 11 8 12 13 11 12 11 9 8 9 10 10 10 9 9 8 7 7 8 8 9 8 8 11 13 13 13 14 15 19 20 19 17 17 16 15 18 21
25 21 17 13 12 8 8 10 12 12 14 13 12 11 11 11 11 11 10 10 8 7 7 6 8 10 11 11 10 11 13 13 13 14 16 18 19 20 19 19 19 18 18
25 21 18 14 11 9 9 9 8 10 12 14 13 12 12 12 14 13 12 12 10 8 6 7 6 6 7 9 9 10 11 11 12 13 15 17 19 21 21 19 21 25 21
26 23 20 14 9 7 8 8 9 9 11 13 14 14 13 13 14 13 14 14 13 10 8 7 6 5 5 5 6 8 10 10 11 13 14 16 18 21 21 19 18 21 26
24 23 17 12 9 9 8 7 8 10 11 12 13 15 15 14 14 15 15 15 13 12 12 10 7 5 5 6 7 8 9 10 10 13 16 17 17 20 17 19 19 18 21
20 21 16 11 9 8 7 7 9 11 12 14 16 18 18 17 17 16 17 16 15 14 14 13 10 8 8 7 8 9 11 11 12 15 13 21 15 20 19 21 18 18 17
19 18 13 11 10 9 7 9 11 14 16 17 19 22 21 22 21 20 20 19 19 18 18 17 16 12 10 9 10 12 11 10 14 10 17 14 25 24 21 19 18 24 22
18 15 13 10 9 10 8 10 13 17 19 21 21 23 25 27 27 26 25 24 23 24 23 22 20 17 15 11 10 10 8 13 5 9 13 22 17 24 20 21 22 21 22
14 12 12 10 9 9 9 10 14 17 22 24 25 27 29 30 30 33 33 31 30 30 28 26 26 21 18 13 6 2 3 4 5 15 13 15 21 17 23 24 23 24 20
12 14 12 11 11 12 14 15 20 23 25 28 32 33 36 35 35 39 40 39 36 35 36 34 31 26 19 11 7 5 1 3 6 8 17 13 14 24 22 24 26 24 23
11 8 12 14 14 15 15 17 21 26 26 35 36 37 40 39 38 41 44 46 43 36 33 31 26 22 15 11 4 8 2 4 3 4 6 12 18 19 24 22 24 29 31
8 8 10 11 12 12 15 18 22 25 28 32 34 37 38 38 39 39 40 44 40 28 22 17 14 10 7 7 3 2 9 7 8 5 6 10 20 18 21 23 23 22 24
9 11 12 9 10 14 19 22 27 31 35 32 31 31 33 33 31 31 35 28 23 17 17 9 5 5 6 9 8 10 10 5 9 6 3 8 12 18 22 20 20 23 27
Wind_Direction
132 121 122 115 109 103 103 121 142 137 129 125 131 132 143 147 153 158 160 157 155 141 145 176 178 185 171 159 149 143 130 81 271 283 273 232 233 196 170 185 161 163 162
132 126 133 126 120 112 105 112 133 137 131 139 155 157 156 154 166 168 163 159 142 141 165 167 191 185 182 161 145 139 154 152 192 251 234 239 231 228 201 199 194 190 180
129 127 136 125 113 115 107 98 100 110 129 142 172 166 183 172 171 165 153 161 159 322 300 310 259 210 212 186 190 184 178 151 194 218 239 241 221 221 222 212 212 204 201
114 104 125 111 115 118 109 101 103 106 114 135 165 182 195 193 189 191 198 218 235 307 306 338 248 215 208 207 206 205 216 189 233 238 231 244 227 204 229 226 219 216 210
112 117 116 113 118 111 98 97 99 102 114 126 149 164 178 207 210 235 247 251 269 292 306 264 257 246 242 255 246 259 246 251 224 238 239 240 233 222 228 235 220 227 228
118 117 112 107 101 96 96 104 108 109 117 135 144 139 153 193 215 229 252 259 255 261 268 274 278 267 299 283 255 250 276 236 237 243 254 255 249 242 259 237 226 221 208
126 119 112 108 99 89 82 87 92 113 118 112 127 134 157 182 212 240 265 265 240 231 266 277 271 278 266 278 257 283 278 258 265 280 253 258 268 269 265 227 232 227 222
121 131 125 118 101 101 130 135 155 160 150 160 128 85 150 182 208 239 249 257 265 282 291 299 291 285 277 271 269 292 273 272 270 281 264 255 266 263 275 239 241 231 231
144 144 146 143 144 146 137 179 194 212 210 205 204 195 209 180 179 240 0 8 305 298 308 312 318 329 310 313 301 310 297 282 280 272 265 260 261 261 259 252 242 239 233
164 164 158 163 162 155 162 171 208 226 225 232 231 222 231 240 215 209 214 239 271 277 287 298 310 315 295 297 301 303 298 288 285 285 274 272 266 272 272 271 241 244 237
183 181 181 179 179 176 181 175 186 218 211 260 251 250 262 236 289 278 312 312 299 281 262 275 283 276 280 277 280 292 307 308 302 295 296 298 296 278 276 276 243 246 247
192 189 193 195 200 204 201 203 211 209 225 231 230 225 244 259 282 271 275 278 269 267 283 280 268 273 281 286 288 294 304 313 318 314 312 309 305 287 281 272 254 249 250
189 190 190 192 207 212 212 214 219 219 233 233 229 237 249 252 263 270 265 271 270 264 262 262 283 295 290 303 307 313 313 299 298 302 307 314 308 302 302 294 272 257 251
182 186 184 190 192 188 199 209 222 230 232 231 237 240 236 248 254 254 253 263 264 273 276 277 281 291 298 297 303 308 311 313 316 302 294 297 295 303 293 292 289 272 262
183 188 187 188 192 201 209 214 220 231 233 234 228 231 239 251 256 258 251 258 258 253 264 278 300 305 307 316 321 322 320 315 314 314 312 307 298 298 299 293 283 280 279
191 193 192 189 195 199 202 203 214 224 227 225 230 233 248 255 258 258 255 255 251 259 263 287 298 306 318 325 333 338 336 333 336 341 332 320 312 305 300 296 286 278 279
197 195 194 185 190 203 213 223 227 232 235 236 238 245 258 257 248 251 253 255 254 253 258 266 279 283 298 311 320 327 331 326 329 334 334 333 331 319 306 304 297 286 279
198 195 187 187 197 210 227 237 244 256 264 256 253 257 260 259 253 255 251 246 244 241 255 252 258 269 295 311 324 330 333 329 332 332 331 346 358 352 326 312 311 304 297
199 184 180 185 206 214 233 247 257 264 262 267 259 253 257 258 252 252 253 244 242 248 253 247 248 262 286 298 313 320 326 326 329 328 338 331 333 344 348 340 329 336 324
177 174 177 191 202 217 234 265 273 270 268 270 273 268 264 258 247 248 249 242 231 236 239 240 240 248 262 273 287 295 300 312 319 332 331 337 331 331 330 333 339 334 331
162 177 190 200 216 229 237 256 266 277 280 271 263 262 258 266 258 249 244 243 232 231 233 234 234 237 242 250 265 262 267 296 279 323 330 325 332 325 327 328 327 331 334
176 192 208 227 234 246 264 289 283 289 288 287 280 266 258 259 254 248 247 238 236 232 228 226 226 226 231 227 221 238 320 305 268 305 319 319 323 322 327 322 321 328 341
204 215 229 252 257 265 271 277 279 277 277 280 285 276 272 258 248 244 246 244 240 232 229 226 222 219 212 204 198 185 121 235 331 269 308 315 310 311 312 315 312 310 314
238 257 268 272 276 283 292 294 289 285 277 279 283 290 291 283 262 252 249 245 242 234 231 231 222 219 200 176 172 160 269 244 238 305 320 302 308 307 312 312 308 307 305
276 298 306 303 316 332 336 324 308 294 293 294 292 297 299 291 278 260 254 246 242 238 234 206 170 152 149 152 157 309 316 276 267 226 294 309 306 304 305 309 310 310 312
59 54 47 29 1 341 334 331 325 317 314 311 311 309 307 303 296 275 251 236 225 185 148 123 100 87 18 345 341 330 311 293 304 281 272 288 287 304 303 304 302 301 301